Regional Weather Roundup
Issued by NWS

Home | Current Version | Previous Version | Text Only | Print | Product List | Glossary On
Versions: 1 2 3 4 5 6 7 8 9 10 11 12 13 14 15 16 17 18 19 20 21 22 23 24 25 26 27 28 29 30 31 32 33 34 35 36 37 38 39 40 41 42 43 44 45 46 47 48 49 50
801
ASUS43 KMPX 270210
RWRMN
WEATHER ROUNDUP FOR MINNESOTA
NATIONAL WEATHER SERVICE TWIN CITIES/CHANHASSEN MN
900 PM CDT FRI AUG 26 2016


NOTE: "FAIR" INDICATES FEW OR NO CLOUDS BELOW 12,000 FEET WITH NO
SIGNIFICANT WEATHER AND/OR OBSTRUCTIONS TO VISIBILITY. N/A MEANS
CURRENT SKY AND/OR WEATHER CONDITIONS ARE NOT AVAILABLE.

MNZ060>063-068>070-270300-
   Twin Cities Metro

CITY           SKY/WX    TMP DP  RH WIND       PRES   REMARKS
TWIN CITIES    CLOUDY    66  55  67 SE6       30.13R
ST PAUL        MOCLDY    64  58  80 SE5       30.13S
CRYSTAL        CLOUDY    64  55  72 CALM      30.11S
LAKEVILLE      CLOUDY    61  61 100 CALM      30.13S
EDEN PRAIRIE   CLOUDY    65  55  70 SE7       30.12S
LAKEVILLE      CLOUDY    61  61 100 CALM      30.13S
SOUTH ST PAUL  CLOUDY    66  55  66 CALM      30.12S
LAKE ELMO      FAIR      61  59  94 CALM      30.14S
$$
MNZ001>005-007-008-013>017-022>024-027-028-270300-
   Northwest Minnesota

CITY           SKY/WX    TMP DP  RH WIND       PRES   REMARKS
BEMIDJI        MOCLDY    65  53  65 S3        30.05S
HALLOCK        CLEAR     66  54  63 S9        29.98R
ROSEAU         CLOUDY    64  55  72 S9        30.00S
WARROAD        CLOUDY    64  55  72 S3        30.01R
THIEF RVR FALL CLOUDY    63  52  67 SW7       30.03F
CROOKSTON      MOCLDY    66  54  63 W7        30.02F
FOSSTON        CLOUDY    61  54  77 S5        30.06R
DETROIT LAKES  PTCLDY    64  54  68 SW3       30.07S
MOORHEAD       CLOUDY    63  55  77 CALM      30.06R
PARK RAPIDS    CLOUDY    63  52  67 S7        30.07S
MAHNOMEN       CLOUDY    64  54  68 W5        30.05S
$$
MNZ006-009>011-018-025>026-270300-
   North Central Minnesota

CITY           SKY/WX    TMP DP  RH WIND       PRES   REMARKS
BAUDETTE       PTCLDY    62  51  67 S5        30.02S
FLAG ISLAND    CLOUDY    70  57  64 CALM      29.99R
INTL FALLS     CLOUDY    56  49  77 CALM      30.05R
WASKISH        MOCLDY    63  55  77 S3        30.04S
BIG FORK       PTCLDY    57  54  88 CALM      30.07S
LONGVILLE      MOCLDY    63  54  72 S6        30.08S
GRAND RAPIDS   CLOUDY    58  52  80 S6        30.10S
CRANE LAKE     CLEAR     54  52  94 CALM      30.09R
ORR            CLEAR     57  50  77 CALM      30.06S
COOK           CLOUDY    57  54  88 CALM      30.09S
WALKER         FAIR      60  56  85 CALM      30.07R
$$
MNZ012-019>021-037-270300-
   Northeast Minnesota

CITY           SKY/WX    TMP DP  RH WIND       PRES   REMARKS
DULUTH         PTCLDY    62  55  77 S7        30.11S
ELY            CLOUDY    61  52  72 S6        30.11R
HIBBING        PTCLDY    54  51  90 CALM      30.09S
EVELETH        CLOUDY    58  51  77 CALM      30.11S
DULUTH HARBOR  PTCLDY    68  57  68 S8        30.11R
TWO HARBORS    MOCLDY    61  55  82 CALM      30.10S
SILVER BAY     CLOUDY    57  54  88 CALM      30.11S
GRAND MARAIS     N/A     56  52  86 NW3       30.13R
G MARAIS ARPRT CLOUDY    52  46  82 S3        30.16S
$$
MNZ029>031-032-039>041-046>048-054>057-064-270300-
   West Central Minnesota

CITY           SKY/WX    TMP DP  RH WIND       PRES   REMARKS
FERGUS FALLS   CLOUDY    64  55  72 S5        30.08R
WHEATON        CLOUDY    64  57  77 SE5       30.07F
MORRIS         CLOUDY    61  57  88 CALM      30.07S
ALEXANDRIA     PTCLDY    62  54  74 S7        30.10S
ELBOW LAKE     FAIR      62  56  83 E6        30.07S
WADENA         MOCLDY    61  52  72 SE5       30.06F
GLENWOOD       CLOUDY    59  55  88 SE7       30.10S
APPLETON       MOCLDY    64  55  72 SE3       30.07S
BENSON         CLOUDY    64  54  68 S5        30.08S
ORTONVILLE     MOCLDY    63  57  82 CALM      30.07S
MADISON        CLOUDY    64  57  77 SE6       30.08R
WILLMAR        FAIR      63  57  82 SE6       30.11F
$$
MNZ033>034-036-042>043-049>051-058-059-270300-
   Central Minnesota

CITY           SKY/WX    TMP DP  RH WIND       PRES   REMARKS
ST CLOUD       PTCLDY    60  57  89 S5        30.11S
SAUK CENTRE    FAIR      63  55  77 SE5       30.10S
PAYNESVILLE    CLOUDY    64  55  73 SE5       30.11S
AITKIN         CLOUDY    63  52  67 S3        30.09S
PINE RIVER     PTCLDY    63  54  72 S5        30.11S
BRAINERD       CLOUDY    60  54  80 S3        30.10S
STAPLES        PTCLDY    61  52  72 S3        30.08F
LONG PRAIRIE   FAIR      61  54  77 E5        30.10S
LITTLE FALLS   PTCLDY    61  54  77 SE3       30.10F
LITCHFIELD     PTCLDY    63  57  82 CALM      30.12S
BUFFALO        CLOUDY    62  56  81 CALM      30.13S
MAPLE LAKE     CLOUDY    63  59  87 CALM      30.13S
HUTCHINSON     CLEAR     63  60  92 SE3       30.14R
$$
MNZ037-044-045-052-053-270300-
   East Central Minnesota

CITY           SKY/WX    TMP DP  RH WIND       PRES   REMARKS
PRINCETON      MOCLDY    63  55  77 CALM      30.12S
MORA           PTCLDY    59  52  77 CALM      30.14R
CAMBRIDGE      CLOUDY    64  54  68 CALM      30.11S
RUSH CITY      PTCLDY    59  56  91 CALM      30.12S
MOOSE LAKE     PTCLDY    59  55  88 CALM      30.09S
HINCKLEY       FAIR      61  55  82 S3        30.12S
CLOQUET        PTCLDY    63  54  72 CALM      30.11S
MCGREGOR       PTCLDY    61  54  77 CALM      30.10S
$$
MNZ071>073-080-081-089-090-097-098-270300-
   Southwest Minnesota

CITY           SKY/WX    TMP DP  RH WIND       PRES   REMARKS
MONTEVIDEO     PTCLDY    63  57  82 S7        30.10S
GRANITE FALLS  PTCLDY    65  59  82 E6        30.09F
CANBY          CLOUDY    64  59  82 SE3       30.08S
MARSHALL       PTCLDY    65  58  78 SE9       30.08F
REDWOOD FALLS  PTCLDY    64  58  80 SE7       30.10F
OLIVIA         CLOUDY    63  55  77 SE7       30.10F
PIPESTONE      CLOUDY    64  57  77 E6        30.08F
WINDOM         CLOUDY    63  59  88 E3        30.12S
WORTHINGTON    LGT RAIN  62  59  90 E6        30.11F
JACKSON          N/A     63  57  82 E3        30.12S
TRACY          PTCLDY    64  60  85 SE6       30.09F
SLAYTON        CLOUDY    61  59  94 SE6       30.11F
$$
MNZ065>067-074>077-082>085-091>093-270300-
   South Central Minnesota

CITY           SKY/WX    TMP DP  RH WIND       PRES   REMARKS
MANKATO        CLOUDY    64  55  72 CALM      30.12S
NEW ULM          N/A     64  57  77 CALM      30.12S
ST JAMES       CLOUDY    59  55  88 CALM      30.13R
FAIRMONT       CLOUDY    63  61  93 E5        30.12S
GLENCOE        CLOUDY    64  61  92 CALM      30.12S
FARIBAULT      CLOUDY    63  61  94 CALM      30.13S
OWATONNA       CLOUDY    63  61  94 CALM      30.13S
WASECA         CLOUDY    63  59  88 CALM      30.14R
ALBERT LEA     PTCLDY    64  57  77 SE3       30.13S
$$
MNZ078>079-086>088-094>096-270300-
   Southeast Minnesota

CITY           SKY/WX    TMP DP  RH WIND       PRES   REMARKS
ROCHESTER      CLOUDY    63  60  90 SE5       30.15R
RED WING       CLOUDY    63  57  82 CALM      30.12S
STANTON        CLOUDY    63  59  88 CALM      30.12S
DODGE CENTER   CLOUDY    63  55  77 CALM      30.14R
WINONA         CLOUDY    64  61  88 CALM      30.14R
AUSTIN         CLOUDY    63  59  88 CALM      30.13S
PRESTON        CLOUDY    64  57  79 SE3       30.16R
$$
ABBREVIATIONS USED IN REMARKS
   TC - TEMPERATURES IN CELSIUS
  WCI - WIND CHILL INDEX
   HX - HEAT INDEX
  VSB - VISIBILITY
$$




USA.gov is the U.S. government's official web portal to all federal, state and local government web resources and services.